Regional Weather Roundup
Issued by NWS Northern Indiana

Home | Current Version | Previous Version | Text Only | Print | Product List | Glossary Off
Versions: 1 2 3 4 5 6 7 8 9 10 11 12 13 14 15 16 17 18 19 20 21 22 23 24 25 26 27 28 29 30 31 32 33 34 35 36 37 38 39 40 41 42 43 44 45 46 47 48 49 50

000
ASUS43 KIWX 261500
RWRIWX

KIWX WEATHER ROUNDUP
NATIONAL WEATHER SERVICE NORTHERN INDIANA
1100 AM EDT SAT JUL 26 2014

NOTE: "FAIR" INDICATES FEW OR NO CLOUDS BELOW 12,000 FEET WITH NO
SIGNIFICANT WEATHER AND/OR OBSTRUCTIONS TO VISIBILITY.

* THESE STATIONS ARE NOT UNDER NWS QUALITY CONTROL. THEY ALSO MAY NOT
  REPORT WEATHER SUCH AS PRECIPITATION OR FOG.

INZ001>027-261600-
NORTHERN INDIANA

CITY           SKY/WX    TMP DP  RH WIND       PRES   REMARKS
GARY*          CLOUDY    75  64  69 S8        29.85F
VALPARAISO     CLOUDY    73  64  73 SW13      29.87F
SOUTH BEND     PTSUNNY   74  63  68 SW7       29.88S
GOSHEN         PTSUNNY   74  64  71 VRB5      29.88F
ANGOLA*        PTSUNNY   75  63  64 VRB5      29.90F
FORT WAYNE     MOSUNNY   76  64  66 SW12      29.90F
PERU/GRISSOM   CLOUDY    74  68  82 S9        29.89F

$$
INZ028>050-261600-
CENTRAL INDIANA

CITY           SKY/WX    TMP DP  RH WIND       PRES   REMARKS
LAFAYETTE      CLOUDY    72  65  78 SW8       29.88F
KOKOMO*        CLOUDY    73  64  73 SW10      29.89F
MUNCIE*        MOSUNNY   75  64  68 SW12G20   29.91F
INDIANAPOLIS   PTSUNNY   74  66  76 SW10      29.91F

$$
MIZ043>046-050>051-056>058-064>065-071>073-077>080-261600-
SOUTHWEST LOWER MICHIGAN

CITY           SKY/WX    TMP DP  RH WIND       PRES   REMARKS
BATTLE CREEK   PTSUNNY   73  61  65 SW6       29.90F
BENTON HARBOR  CLOUDY    70  61  73 VRB3      29.87S
COLDWATER*     CLOUDY    73  62  68 MISG      29.91S
HILLSDALE*     SUNNY     74  63  69 W5        29.92S
HOLLAND        PTSUNNY   74  63  68 S5        29.87F
GRAND RAPIDS   CLOUDY    73  62  68 SE5       29.88F
KALAMAZOO      CLOUDY    71  61  70 S3        29.89F
STURGIS*       PTSUNNY   72  64  78 S3        29.89F
THREE RIVERS*  FAIR      71  64  77 CALM      29.90S

$$
OHZ001>008-015>018-024>025-261600-
NORTHWEST OHIO

CITY           SKY/WX    TMP DP  RH WIND       PRES   REMARKS
DEFIANCE       PTSUNNY   75  62  64 SW8       29.92F
FINDLAY        PTSUNNY   77  62  59 SW10      29.92F
TOLEDO EXPRESS SUNNY     76  61  59 VRB5      29.90F
TOLEDO METCALF SUNNY     77  60  55 SW10      29.91F
LIMA           PTSUNNY   76  62  62 SW10      29.94F

$$
&&


USA.gov is the U.S. government's official web portal to all federal, state and local government web resources and services.